Theta_e
310 311 310 310 310 310 310 310 310 310 310 310 310 310 310 310 310 310 310 310 310 310 311 311 311 311 311 311 311 311 311 311 311 311 311 313 314 315 315 315 315 315 315 316 317 318 317 317 316 316 316 316 316 316 317 319 320 320 323 323 321 326 326 325 328 319 318 323 319 315 316 317 319 318 316 317 316 316 316 316 317 317 317 318 318 317 317 317
310 310 310 310 310 310 310 310 310 310 310 310 311 310 311 311 311 312 311 312 312 312 312 312 313 313 313 313 313 313 313 313 312 312 313 315 315 314 315 315 315 315 315 315 316 317 317 317 317 316 316 316 316 317 317 319 319 321 324 321 322 328 322 318 321 316 315 319 316 315 316 315 317 316 315 317 316 315 316 316 315 316 317 317 318 318 317 317
310 310 310 310 310 310 310 310 311 310 311 311 311 311 311 312 312 312 313 313 313 314 314 314 314 314 315 314 315 315 314 314 313 314 316 315 315 314 315 316 316 316 315 315 315 316 317 317 317 316 316 316 316 318 318 319 320 320 320 323 328 324 316 314 316 315 317 318 315 315 314 313 315 315 314 315 315 315 315 315 314 315 317 317 317 317 317 317
310 310 310 310 310 310 310 310 310 310 311 311 311 311 312 312 313 313 313 313 314 314 314 314 314 315 315 315 315 315 315 314 315 316 316 315 315 315 314 315 316 316 316 315 314 315 316 317 317 316 315 315 315 317 318 319 320 319 318 325 325 316 316 318 316 317 317 316 315 314 314 313 315 315 314 314 315 316 314 314 315 316 316 317 317 317 317 317
310 310 310 310 310 310 311 311 311 311 311 311 311 312 312 312 312 313 313 313 314 314 314 314 315 315 314 315 315 315 314 316 317 316 315 317 316 315 314 314 314 316 316 315 314 314 315 316 316 316 315 315 315 317 318 318 319 319 318 320 318 313 317 319 316 318 317 316 315 313 314 315 315 314 314 314 315 316 315 315 316 316 316 316 316 316 316 316
310 310 311 311 311 311 311 311 311 311 311 311 311 312 312 312 312 313 313 313 314 314 314 314 314 314 314 315 314 314 314 316 317 314 315 318 316 315 315 314 314 314 315 316 315 313 314 316 317 315 314 314 315 317 317 317 318 319 319 317 316 316 316 317 318 317 317 316 314 314 315 314 314 314 314 313 314 316 316 316 316 316 316 316 316 316 316 316
310 310 311 310 311 311 311 311 311 311 311 311 311 312 312 312 312 313 313 313 313 314 314 314 314 314 314 314 314 314 314 315 315 314 316 318 316 315 315 315 314 314 314 316 316 315 313 315 316 315 314 314 314 315 315 316 316 319 320 316 316 317 315 317 318 317 317 316 315 315 314 312 313 315 314 313 315 316 316 316 316 316 315 315 316 315 316 316
310 310 311 311 311 311 311 311 311 311 311 311 311 311 312 312 312 312 313 313 313 313 314 313 314 313 314 314 314 314 314 315 314 314 316 316 316 315 315 315 315 314 314 314 315 315 313 314 315 315 314 315 314 314 315 315 315 318 319 316 315 317 316 318 317 317 317 316 315 314 312 312 314 314 312 313 317 317 316 316 316 316 315 314 315 315 315 315
312 312 312 312 312 312 312 312 312 312 312 312 312 312 312 312 312 312 312 313 313 313 313 313 313 313 314 314 313 313 314 314 315 315 315 315 315 315 315 315 315 315 314 314 315 315 313 313 314 315 315 314 314 315 314 315 317 316 317 315 315 315 316 316 315 315 315 314 314 313 312 314 314 313 313 315 317 317 316 316 316 316 315 315 315 315 315 315
312 313 313 313 313 313 313 313 313 313 313 313 313 313 313 313 313 313 313 313 313 313 313 313 314 314 314 314 313 313 315 315 315 315 314 315 315 315 315 315 315 315 314 314 314 314 313 313 313 315 315 314 314 314 314 316 317 315 314 314 313 314 314 314 313 314 313 313 313 314 315 314 313 313 315 316 316 316 316 315 315 316 315 315 315 315 315 315
312 312 312 312 313 313 313 313 314 314 314 314 314 314 314 314 314 314 314 314 315 315 314 314 314 314 314 314 313 313 315 315 315 315 315 315 315 315 315 315 315 315 315 314 313 314 313 312 313 314 315 315 314 313 313 314 315 314 312 313 313 312 313 313 312 312 312 313 314 313 314 313 311 312 315 316 316 315 315 315 315 315 315 315 315 315 315 315
312 312 311 311 311 311 312 312 312 313 313 313 313 313 313 313 314 314 314 314 315 314 314 315 314 314 314 314 313 314 315 315 315 315 315 315 315 315 315 315 315 315 315 314 314 313 312 311 312 314 315 314 313 313 313 314 313 313 313 314 315 313 313 313 313 313 312 314 314 312 314 316 314 313 315 315 316 315 315 316 316 315 315 315 315 315 315 315
316 316 315 314 314 314 314 314 314 314 314 314 314 314 313 313 313 313 313 313 313 313 313 313 313 313 313 313 314 315 315 315 315 315 315 316 315 315 315 315 315 315 315 314 314 312 311 311 311 313 314 313 314 313 313 312 312 313 313 313 314 314 315 313 312 313 312 313 313 312 314 319 318 314 314 315 315 314 315 316 317 317 317 316 316 315 316 316
318 318 318 318 318 318 318 319 319 319 319 319 319 319 318 318 317 316 315 314 313 312 312 312 312 311 311 313 314 315 315 315 315 315 315 315 315 315 315 315 315 315 315 314 314 313 312 312 311 313 313 314 314 313 314 314 315 316 312 313 315 315 316 313 311 311 312 313 312 313 315 317 317 314 314 315 315 314 314 316 317 317 318 318 317 317 317 317
316 317 317 317 318 318 318 319 319 319 320 320 320 320 320 320 320 320 319 319 317 316 315 314 312 311 311 313 313 314 314 314 315 316 316 316 316 316 315 315 315 315 315 314 314 314 312 312 313 314 313 314 313 314 318 319 323 322 313 315 319 316 316 314 311 310 313 314 310 313 316 315 315 314 315 315 314 314 314 315 317 317 318 318 318 318 318 318
313 313 313 314 314 314 314 314 314 314 315 315 315 315 315 316 317 318 319 320 320 319 318 316 312 311 311 312 313 314 315 315 316 315 316 316 316 316 316 315 315 315 315 314 314 313 313 312 313 314 313 313 313 318 321 318 324 324 314 315 318 316 315 315 314 309 309 313 311 312 316 316 316 315 315 315 314 313 313 314 316 317 317 318 318 318 318 318
310 310 310 310 310 311 311 311 311 311 311 311 311 312 312 312 313 313 314 315 317 319 318 315 312 311 312 313 313 314 315 315 315 315 315 315 316 316 316 316 315 315 314 313 312 311 312 312 313 314 313 313 314 318 319 316 318 319 315 315 317 316 314 314 317 311 308 312 313 313 313 313 315 314 314 315 314 312 311 313 314 316 316 316 317 317 317 317
308 308 309 309 309 309 309 309 309 309 309 309 309 310 310 310 311 311 312 313 315 316 315 313 313 312 313 314 313 314 314 315 315 315 315 315 316 315 316 315 314 314 313 311 311 311 311 311 312 315 315 313 314 315 317 316 315 315 316 316 316 316 314 314 316 313 312 314 314 314 313 312 313 312 311 313 314 311 310 312 313 313 314 315 315 316 316 317
308 308 308 308 308 308 308 308 308 308 308 308 308 309 309 310 311 312 314 314 314 316 316 315 315 314 315 314 313 314 315 315 316 316 316 316 316 315 316 314 313 313 311 312 312 310 311 312 312 315 315 313 313 313 314 314 313 314 314 314 314 314 314 314 313 312 312 313 312 312 312 311 312 311 311 312 313 311 311 311 311 311 312 313 314 315 315 316
310 309 309 309 309 308 308 308 308 308 309 309 309 308 309 311 312 313 314 314 315 316 317 316 316 315 314 314 313 314 314 314 314 314 315 316 315 315 314 313 312 312 311 315 317 311 310 315 316 315 314 313 313 312 312 313 312 312 312 313 314 313 312 312 312 311 310 311 312 313 312 311 311 312 311 311 312 311 311 311 311 311 312 312 313 314 315 315
313 311 311 311 310 310 311 311 311 311 311 311 310 309 310 311 311 312 312 313 313 314 315 315 315 315 315 315 315 315 314 314 314 315 315 315 315 315 314 312 312 313 311 312 314 311 310 314 315 315 314 313 313 312 311 312 312 312 313 313 313 313 312 311 312 312 310 310 311 313 313 311 311 312 311 311 312 311 311 311 311 312 312 313 313 314 314 315
318 316 315 315 315 314 315 315 316 315 314 313 311 310 310 310 311 311 310 311 312 311 312 312 313 314 314 315 315 314 314 314 315 315 315 315 314 315 314 313 314 315 313 311 312 313 312 313 313 313 312 312 312 312 311 312 312 313 313 313 313 312 312 312 312 312 311 311 315 315 313 311 311 312 311 311 311 312 312 312 312 312 312 313 313 314 314 314
320 319 319 319 319 319 319 320 319 319 318 316 313 311 310 310 311 310 310 311 314 313 313 313 312 312 312 313 314 314 313 313 314 315 315 314 313 314 312 312 314 314 314 314 314 315 315 314 312 310 310 312 313 312 312 312 312 313 313 313 313 312 312 313 313 314 313 312 316 316 312 311 311 312 312 311 310 311 312 312 313 313 312 313 313 314 314 314
321 321 321 321 321 322 322 322 321 321 321 319 316 313 311 310 310 310 310 311 312 314 315 316 312 311 312 312 312 314 313 313 314 314 315 314 313 313 312 312 313 314 313 313 313 314 315 314 311 310 311 312 313 312 313 313 312 313 314 312 312 312 312 312 313 315 314 313 315 315 312 313 314 313 313 312 310 311 311 311 312 312 313 313 313 313 314 314
321 322 322 321 322 323 322 322 321 322 322 321 320 317 314 312 310 311 311 312 314 314 314 314 312 312 313 312 312 313 313 313 313 313 314 314 314 313 311 311 313 314 313 312 312 312 312 311 310 313 315 313 313 313 314 315 313 312 315 313 312 313 313 312 313 313 314 317 317 314 315 317 318 316 315 314 314 312 311 311 311 312 313 313 312 313 314 315
322 322 322 322 322 322 322 322 322 323 323 322 321 318 316 313 311 313 312 313 318 316 312 312 313 313 312 312 312 311 313 314 312 313 313 313 314 313 312 312 311 313 313 312 311 311 313 311 311 315 317 315 313 313 313 314 312 313 319 319 313 312 313 314 314 313 317 321 316 314 317 317 317 318 318 317 317 316 314 314 312 310 312 313 313 314 316 317
322 322 322 322 322 322 323 323 322 323 323 322 322 320 317 313 311 313 313 318 323 317 313 313 311 313 312 311 312 313 318 317 311 312 312 312 313 312 313 313 311 311 311 311 312 313 314 312 312 313 314 316 315 313 314 313 312 315 320 322 318 315 315 314 313 314 317 318 315 316 318 317 316 316 318 318 317 317 316 315 314 311 311 312 313 315 316 317
324 323 323 323 323 323 323 323 323 323 323 323 322 321 318 314 312 311 314 324 326 316 314 313 310 312 312 311 311 312 314 312 311 312 311 311 313 311 312 312 312 313 310 311 314 313 314 314 315 314 313 315 315 314 316 313 313 317 317 316 317 317 316 314 315 316 316 316 316 315 316 318 318 316 316 315 315 317 316 315 315 312 312 313 313 315 317 317
325 323 323 323 323 324 323 324 324 323 323 322 322 321 316 314 313 310 315 324 322 314 314 313 312 312 311 311 311 310 310 309 310 311 310 311 312 310 312 311 310 312 309 311 314 312 313 314 313 315 316 315 313 314 318 317 314 315 315 315 318 320 318 317 318 318 318 319 318 316 317 318 318 319 319 314 314 318 316 314 314 312 312 313 314 315 317 317
326 325 324 324 324 324 323 324 324 323 323 322 323 319 312 313 313 313 320 323 319 315 312 311 312 311 311 312 312 310 310 310 309 310 310 310 311 310 311 310 309 314 314 311 314 312 310 309 308 312 314 312 314 313 312 315 313 311 314 317 322 324 321 321 321 318 317 319 319 319 320 318 318 320 320 317 318 319 316 315 317 315 312 313 315 316 316 317
324 325 325 325 324 324 324 324 323 324 323 322 323 317 312 316 316 318 324 321 318 319 312 311 314 313 313 314 315 313 311 310 309 310 312 311 311 310 310 310 310 316 319 314 313 313 310 310 312 313 310 310 315 313 308 309 309 311 317 320 321 322 321 322 322 319 318 319 319 319 318 317 317 317 318 318 317 317 316 318 323 323 314 312 316 317 316 317
322 323 324 325 325 324 324 324 323 324 323 323 323 317 314 321 320 320 323 321 323 322 313 313 314 315 316 314 316 317 313 312 309 310 315 314 313 313 312 315 315 317 321 318 317 317 314 313 313 313 310 310 315 316 314 312 310 313 318 318 317 319 320 320 321 320 319 319 317 316 315 315 316 317 318 318 318 316 314 313 317 319 313 312 316 317 316 317
322 322 324 324 325 324 324 323 323 323 322 322 321 316 317 324 325 322 322 323 325 318 312 315 314 315 316 314 320 319 312 315 312 309 313 312 312 315 315 316 316 314 317 318 318 320 319 315 311 311 312 312 314 316 316 317 315 314 316 318 318 319 319 319 321 320 318 318 315 313 315 316 316 319 319 317 315 315 312 309 311 313 312 313 315 316 316 316
322 322 323 323 324 324 323 323 322 322 322 321 318 316 319 324 325 323 321 322 322 316 313 315 314 315 315 315 322 319 313 317 315 310 312 311 311 316 317 313 311 313 315 314 316 319 318 317 316 315 315 314 313 313 317 322 319 313 316 320 318 321 323 320 322 321 317 319 317 312 315 319 317 318 320 317 312 311 310 310 311 310 311 313 314 315 315 316
320 321 322 322 322 323 322 322 322 321 321 319 316 317 321 323 324 323 322 320 319 316 314 313 314 317 317 318 320 317 313 316 315 311 313 313 314 317 320 316 311 313 315 314 317 318 315 318 319 314 311 313 313 312 315 321 320 314 316 320 316 320 323 317 320 321 315 317 318 313 317 320 316 315 318 317 314 311 309 309 309 310 312 314 312 313 314 315
316 318 319 320 320 321 321 322 322 320 319 317 316 318 320 322 324 325 322 316 313 315 317 317 317 318 319 320 320 316 312 313 314 313 313 314 315 316 319 319 313 311 312 314 318 319 316 319 319 311 309 312 311 310 311 314 318 315 314 318 316 317 319 316 318 319 313 314 317 315 317 317 315 317 316 313 313 313 311 311 310 310 312 312 310 312 313 314
314 314 315 316 317 318 319 321 321 320 318 316 318 320 320 320 320 321 319 312 311 317 320 319 319 320 319 319 321 319 314 314 315 314 316 316 315 314 317 318 312 309 311 312 316 319 316 316 318 314 313 311 304 306 310 309 312 316 317 317 315 314 316 316 317 317 315 316 316 315 317 315 315 319 317 313 315 317 316 316 314 310 307 307 309 312 313 313
312 312 313 314 315 315 316 319 320 319 316 315 318 320 320 319 316 314 314 312 314 318 319 320 321 322 320 319 322 319 315 317 317 317 319 319 315 315 317 317 312 309 310 310 313 318 315 313 316 316 315 312 306 309 314 309 307 311 314 314 314 315 316 316 317 318 316 317 317 316 316 315 315 317 316 315 317 318 318 318 317 314 309 308 311 314 314 314
310 310 311 313 314 314 314 318 319 317 315 315 318 318 319 319 315 312 314 314 315 318 319 321 322 321 321 320 321 320 317 317 318 319 321 320 318 316 314 315 315 310 308 308 312 316 314 313 316 315 314 312 310 313 317 314 310 308 309 311 312 315 315 315 319 319 317 317 318 317 317 317 317 316 315 315 314 315 317 318 318 316 312 311 313 313 313 313
308 310 311 313 314 314 314 316 317 315 314 316 317 317 317 317 314 313 315 315 314 317 319 321 321 320 320 320 319 320 318 317 317 318 320 320 320 319 316 315 315 313 309 309 313 315 314 315 315 315 315 313 313 315 316 316 315 312 312 313 312 313 314 315 316 317 316 316 317 318 318 318 317 316 316 315 314 315 316 317 319 315 310 311 313 312 313 313
307 309 311 312 314 315 315 315 315 313 314 316 316 316 316 315 314 313 314 314 314 315 316 318 320 320 319 319 319 318 318 318 318 317 318 319 318 317 317 315 314 316 313 311 313 315 316 317 316 316 317 315 315 317 315 315 316 314 314 314 313 313 315 315 315 316 316 315 316 318 317 318 318 317 316 315 315 316 315 315 316 312 308 311 314 313 314 313
306 308 310 311 313 315 315 315 313 313 314 315 315 315 315 314 314 314 313 313 313 313 313 315 317 318 317 317 317 317 317 318 318 316 316 317 316 315 316 314 313 314 313 314 316 315 315 317 316 315 317 317 316 316 315 314 314 313 313 313 313 313 314 315 316 317 316 315 315 316 316 318 319 318 316 315 315 314 311 311 311 309 309 312 314 313 314 314
305 307 309 311 312 314 315 315 314 314 314 314 314 314 314 313 314 314 312 312 313 313 313 314 314 315 316 316 316 316 316 317 317 316 316 316 315 314 314 313 313 313 314 317 318 315 314 316 316 315 316 316 317 316 315 313 312 313 312 311 312 313 313 315 315 316 316 316 316 317 317 318 318 318 316 315 314 313 310 309 308 308 310 312 312 312 313 313
302 304 306 309 312 313 314 315 315 314 313 313 313 314 314 313 313 313 313 312 313 313 314 314 313 313 314 315 315 315 316 316 316 316 316 316 315 314 313 313 313 313 314 317 316 315 315 315 316 316 316 317 317 316 315 313 312 312 312 312 312 312 312 314 314 314 315 315 315 317 316 317 317 318 316 314 313 313 312 309 307 307 309 311 312 312 312 312
301 302 302 304 308 311 313 313 313 313 313 313 314 314 314 313 312 313 313 312 311 311 313 314 313 312 313 314 313 314 315 315 315 316 316 316 316 314 312 312 312 313 313 314 313 314 315 315 316 316 316 317 316 316 317 318 315 312 312 313 313 313 312 312 313 314 314 315 315 316 316 315 315 316 315 313 313 312 312 311 309 308 309 310 311 311 311 311
300 302 302 303 305 308 310 311 311 312 312 313 313 313 313 314 313 312 312 312 311 311 311 312 312 311 312 313 312 313 313 313 313 314 314 315 317 314 309 308 310 310 311 312 312 311 311 313 315 315 315 316 315 314 317 319 316 315 315 314 314 314 313 312 313 314 314 314 314 315 315 314 314 314 313 313 313 312 312 312 311 310 310 310 310 309 309 309
299 301 303 304 305 306 308 309 310 311 311 311 312 312 312 312 312 312 312 312 311 311 311 311 311 312 313 312 312 312 312 312 312 312 312 312 311 308 305 306 307 306 307 309 309 309 309 311 313 314 314 315 314 314 315 315 314 315 315 314 314 314 313 313 313 313 313 315 314 315 315 315 315 314 313 312 312 312 312 312 312 312 311 309 308 307 306 304
298 299 301 303 304 305 306 306 306 307 309 309 309 310 311 310 310 311 311 310 310 310 311 311 311 311 310 309 310 310 310 312 311 310 310 306 303 303 304 305 305 304 303 304 305 307 309 309 311 312 312 313 313 313 313 314 314 314 314 314 314 314 314 313 313 312 313 313 313 314 314 314 314 312 313 313 312 312 312 311 311 309 306 304 303 302 301 299
297 298 299 300 300 301 302 302 301 303 305 306 307 308 309 309 309 310 310 310 309 309 311 311 308 306 304 304 306 307 307 309 308 305 304 302 300 302 303 303 304 303 301 301 303 305 307 309 310 311 311 311 311 311 312 312 312 312 313 313 313 313 313 313 313 313 313 312 313 313 312 313 312 312 312 311 309 309 309 308 306 302 298 298 298 297 296 296
296 297 297 298 298 298 299 299 299 300 301 303 304 306 307 308 308 308 307 307 308 309 310 309 304 302 302 303 304 304 303 304 303 302 301 300 300 301 301 302 304 302 300 301 303 305 307 308 309 309 309 309 310 311 311 311 311 311 311 311 311 312 312 312 312 311 311 312 312 311 312 313 310 307 306 303 301 302 302 300 298 296 296 296 295 295 295 295
295 295 296 296 297 297 298 297 298 300 301 302 304 305 306 307 305 305 304 303 305 307 306 304 301 300 301 301 302 302 301 300 299 299 299 299 299 300 299 300 301 300 300 302 303 304 305 305 306 307 307 308 309 311 311 311 310 310 310 310 310 310 310 310 310 310 311 311 312 312 313 309 302 298 298 297 295 297 298 296 294 294 294 294 294 294 294 294
293 294 295 295 296 296 297 296 297 299 300 300 301 302 303 302 301 301 302 302 302 303 300 299 299 299 299 300 301 301 299 297 298 298 298 298 298 298 299 299 299 300 300 301 302 303 304 304 305 306 307 307 308 309 309 309 309 310 311 311 311 310 310 310 310 310 309 309 310 309 305 299 295 294 295 294 293 294 296 295 293 293 293 293 294 294 294 294
Wind_Speed
5 5 5 6 6 6 5 5 6 6 6 6 6 6 7 7 7 6 6 6 7 7 7 7 8 9 9 10 10 11 11 12 12 14 14 10 9 11 12 11 10 9 8 7 6 4 4 6 6 6 6 5 4 5 6 6 6 4 3 2 3 3 4 5 7 6 3 3 5 6 6 5 6 8 9 9 12 16 17 18 19 19 22 25 25 23 21 18
6 6 6 6 6 6 6 5 5 5 5 5 5 6 6 6 6 6 6 6 7 7 7 7 8 9 9 10 11 12 12 13 16 14 7 7 8 7 10 12 12 10 8 7 7 5 5 6 7 7 7 6 4 5 5 6 8 5 3 2 5 5 6 7 8 7 4 5 7 10 10 6 9 10 7 6 11 13 12 15 17 20 24 26 28 27 26 24
7 7 6 6 6 6 6 6 6 5 5 5 5 5 5 5 6 6 6 6 7 7 8 9 9 10 11 11 12 13 13 16 15 5 3 9 12 8 5 9 11 12 10 8 7 6 5 6 6 7 9 7 6 6 5 6 8 7 4 2 7 8 6 9 12 12 12 11 10 12 9 6 11 12 7 7 11 11 11 14 14 19 26 27 28 28 28 28
8 7 7 7 7 7 7 6 6 6 6 6 6 6 6 6 6 7 7 7 7 8 8 10 10 11 12 13 14 14 15 16 6 3 7 13 11 8 5 4 8 11 12 11 9 8 7 7 7 8 8 7 6 6 6 8 8 5 6 5 6 5 4 13 17 16 17 14 11 10 6 7 15 13 12 10 8 9 14 19 18 21 26 25 26 28 28 29
9 9 8 8 8 8 8 8 7 7 7 7 7 7 7 7 8 8 8 8 9 9 9 10 11 12 13 14 15 14 13 8 1 3 13 11 7 8 7 5 5 7 11 11 11 10 10 10 9 8 7 5 5 4 5 12 11 4 8 13 10 6 4 15 17 13 15 13 11 9 5 10 14 12 18 15 8 14 18 19 21 23 24 24 24 25 27 29
10 10 10 10 10 9 9 9 9 9 9 9 9 9 9 10 10 10 11 11 11 10 11 11 12 13 14 15 15 15 9 3 6 12 14 7 6 8 8 8 6 6 9 11 13 12 11 12 10 9 6 4 6 7 6 12 14 5 8 12 16 13 11 19 18 15 17 13 10 10 10 14 12 14 20 18 21 32 32 27 28 28 27 24 23 24 27 29
11 12 12 12 11 11 11 11 11 11 11 11 11 11 12 12 12 12 13 13 13 13 13 13 14 14 15 16 17 16 10 10 15 15 10 7 8 10 10 11 8 7 8 10 13 14 13 13 13 10 5 2 5 8 8 10 13 8 6 7 14 18 19 25 24 22 23 18 18 16 14 15 14 14 15 20 35 42 37 35 34 33 31 26 25 27 29 30
12 13 13 13 13 13 13 13 13 13 13 13 13 13 14 14 14 15 15 14 15 15 15 15 15 15 16 17 18 16 14 17 17 12 10 9 11 14 13 12 10 10 9 10 12 14 14 14 16 12 5 4 6 7 6 6 7 8 8 8 10 14 20 26 24 24 24 21 21 17 16 21 24 18 15 30 47 44 38 38 33 31 31 30 30 30 30 31
14 14 14 14 15 15 15 15 15 15 15 15 15 16 16 17 17 17 17 16 17 16 17 16 16 17 16 18 18 15 18 18 13 11 12 13 15 17 17 14 12 12 11 11 12 13 16 17 18 15 9 8 6 6 5 4 5 9 13 11 9 13 20 22 20 21 20 19 17 11 15 27 27 16 18 39 45 37 32 28 22 21 24 27 29 31 32 33
15 16 16 16 17 17 17 17 18 18 18 18 18 18 18 19 19 19 19 19 18 18 18 17 17 17 16 19 16 11 17 17 13 15 16 18 20 20 19 16 14 13 12 13 14 15 18 17 15 13 12 9 6 6 6 5 5 6 10 12 13 17 22 20 18 20 15 16 16 11 14 26 20 5 14 36 31 24 24 19 16 16 20 23 25 29 30 32
15 16 16 17 17 18 18 19 20 20 20 20 20 20 20 21 21 21 21 21 21 20 19 19 18 18 18 20 17 15 21 22 19 21 20 20 22 21 20 17 16 15 14 14 14 15 18 17 13 8 7 6 5 5 6 8 7 8 7 10 14 14 20 21 16 19 12 11 17 16 13 21 11 5 19 39 31 25 28 26 24 22 23 25 24 27 29 32
15 16 16 16 17 17 18 19 20 20 21 21 21 21 21 22 22 22 22 22 22 21 20 19 18 19 18 21 26 26 26 25 23 23 21 22 22 22 21 20 19 15 14 14 13 14 16 17 15 11 8 5 3 2 4 7 6 9 5 6 12 8 15 20 13 15 11 6 11 10 6 12 6 11 30 42 34 29 30 32 32 30 30 29 28 28 29 32
15 15 16 16 17 17 18 18 19 20 21 21 21 21 21 22 22 22 22 22 22 21 21 19 18 19 16 22 31 30 26 26 25 24 23 24 24 24 24 22 19 16 15 15 14 15 15 15 15 15 14 8 4 4 5 5 6 9 3 1 8 7 10 10 2 5 7 5 7 9 3 9 9 20 34 37 31 26 26 31 34 32 32 31 30 30 30 31
16 16 16 17 17 18 18 19 20 20 21 21 21 21 21 21 22 23 22 21 21 20 20 18 17 17 16 23 32 29 27 27 27 26 25 24 24 24 24 23 20 17 15 15 15 15 14 12 12 13 14 12 10 9 7 6 5 6 3 0 3 3 7 6 4 3 4 5 12 12 4 9 11 25 35 32 25 20 21 28 32 31 32 32 31 30 29 29
16 16 17 18 18 19 19 20 21 21 22 22 22 22 22 21 22 23 21 21 20 20 20 18 17 15 13 22 29 26 25 27 27 25 22 21 22 23 23 20 18 17 15 15 15 15 13 10 9 9 9 12 12 7 4 4 4 2 2 4 2 3 7 10 7 6 8 6 12 11 5 8 10 24 36 29 20 17 19 26 31 31 32 32 32 32 32 31
15 15 16 17 17 18 19 20 21 21 22 22 22 22 21 21 22 22 22 21 20 19 19 17 17 13 8 16 24 23 25 27 25 23 21 22 22 22 21 17 15 15 14 15 15 13 11 8 8 7 7 8 6 1 4 4 5 3 3 5 5 5 4 7 10 9 11 5 7 9 6 5 7 19 32 28 19 16 18 25 31 32 33 32 33 33 34 36
13 13 14 15 15 17 17 18 19 20 20 20 21 21 20 20 20 20 20 20 19 18 16 14 13 11 10 15 21 25 28 27 25 22 21 21 21 20 20 17 14 14 13 13 12 9 8 9 7 4 5 4 2 5 3 3 6 4 2 4 5 6 5 4 9 8 6 6 7 8 8 10 10 14 26 31 25 17 16 25 31 32 34 35 36 38 40 41
11 11 12 12 13 14 15 16 17 17 18 18 19 20 19 18 18 18 18 17 15 12 10 11 8 3 10 17 19 22 23 20 18 17 15 16 17 18 18 16 13 12 10 8 8 9 10 8 5 1 2 3 2 5 3 7 9 7 6 5 4 5 6 6 8 6 2 5 7 5 8 14 13 13 23 35 34 24 21 28 32 34 36 39 42 44 46 47
9 9 9 9 10 12 12 13 14 14 15 14 14 16 17 15 14 14 13 13 10 6 5 10 13 5 7 12 13 14 15 14 13 14 16 16 16 17 16 13 10 11 9 5 5 11 11 4 4 3 4 8 8 8 12 15 13 11 8 6 6 7 7 8 11 9 5 8 8 7 14 16 14 14 18 31 35 30 30 31 32 33 35 39 43 46 48 50
9 8 8 8 8 10 11 11 12 13 13 12 12 12 11 8 6 7 8 12 14 13 13 14 18 18 16 16 17 17 17 17 19 19 19 19 16 15 15 11 9 10 8 5 5 8 10 5 4 7 11 14 13 14 17 16 10 7 4 6 8 8 10 10 13 12 4 4 8 10 16 17 15 14 14 26 29 25 28 28 30 32 33 38 42 46 48 50
9 8 7 7 8 9 10 11 12 12 13 13 13 11 6 4 3 5 8 12 17 20 23 24 24 27 27 26 25 23 20 19 22 23 20 18 14 12 13 12 8 6 6 6 4 2 6 6 7 15 19 15 11 12 13 10 7 6 5 8 8 7 13 12 12 14 4 3 7 8 14 19 16 14 14 21 19 18 24 25 29 31 32 38 41 44 49 51
9 9 7 7 8 9 10 12 12 12 13 13 14 12 8 8 7 8 10 11 18 22 24 27 29 33 34 33 32 30 21 16 20 22 19 17 15 12 11 11 6 4 4 4 2 1 3 6 14 21 14 5 5 4 4 7 7 7 6 6 7 7 11 10 11 14 3 2 8 7 13 16 13 14 13 16 17 22 31 32 34 33 30 37 41 44 49 50
10 9 8 7 7 9 9 11 12 12 12 11 13 13 11 12 11 11 9 7 15 20 23 28 31 35 36 34 35 33 26 19 19 22 22 19 17 15 12 10 5 3 5 6 7 6 5 7 16 17 5 1 8 5 2 4 5 6 6 5 8 8 9 8 7 8 3 3 7 8 13 13 10 13 12 19 26 28 32 36 39 39 35 41 47 47 48 48
11 11 10 8 7 8 8 10 11 10 11 10 11 13 13 14 12 12 10 6 8 13 21 27 26 29 32 30 28 27 25 22 18 18 22 23 18 12 11 10 5 3 7 12 13 11 9 7 8 7 5 7 10 7 4 6 7 8 7 7 11 12 12 10 5 6 5 4 6 8 13 11 9 13 11 15 23 23 26 29 32 40 44 46 48 49 49 50
12 12 12 10 8 8 8 9 8 9 10 9 10 12 13 13 11 12 10 4 5 7 13 17 16 18 22 20 18 16 14 17 21 19 17 22 22 11 6 10 7 6 11 10 9 10 11 9 5 6 7 9 8 7 7 8 9 8 6 12 18 16 12 12 9 7 5 5 5 3 9 9 6 11 10 8 9 11 15 17 21 37 43 40 42 45 47 48
13 13 12 11 9 8 9 8 7 9 10 8 10 11 12 11 10 11 8 3 5 4 4 6 6 5 8 11 12 9 4 8 17 21 19 19 24 16 5 7 6 6 7 6 4 4 6 9 7 8 8 8 7 7 8 10 9 8 6 12 16 13 10 12 10 5 2 4 4 2 2 9 5 7 9 8 8 10 11 11 17 29 35 34 38 42 43 44
15 14 14 13 11 10 10 9 8 10 8 8 9 10 10 8 8 9 6 4 5 3 4 4 4 2 2 6 12 12 3 3 3 12 20 19 22 20 8 4 4 3 4 4 3 3 4 5 5 6 6 6 6 8 8 10 7 7 5 8 10 9 10 10 6 5 4 3 4 1 4 7 11 6 9 11 10 11 12 14 15 21 31 33 33 37 39 39
17 17 15 14 14 14 13 11 10 10 8 8 8 8 7 5 6 7 4 3 5 2 4 3 4 1 1 8 17 10 1 1 3 4 12 15 18 14 8 7 6 4 4 5 5 4 4 5 6 7 6 5 7 8 7 11 7 6 2 4 6 6 6 4 4 5 2 4 4 4 5 3 12 6 5 7 8 10 14 16 15 17 26 28 26 33 35 32
20 19 16 15 16 17 16 14 11 10 10 8 6 6 4 3 4 6 3 4 3 3 2 2 3 0 2 8 13 8 4 4 2 2 4 8 14 8 3 7 6 4 4 6 8 6 1 3 7 9 6 6 9 6 7 12 9 4 5 4 3 3 2 3 3 3 2 5 6 6 6 4 10 6 3 2 3 9 12 12 11 14 22 25 26 31 29 25
22 22 19 18 21 20 19 17 12 8 9 7 6 5 1 1 2 3 3 5 2 1 0 1 1 1 3 5 3 5 2 3 3 5 4 3 10 6 0 2 3 3 4 4 7 8 3 2 3 6 6 6 4 2 4 9 6 2 5 3 5 4 4 4 0 3 2 8 6 10 12 6 7 6 3 3 4 7 8 6 8 12 19 24 27 29 26 23
22 23 21 22 25 23 22 20 13 9 9 7 5 3 2 2 3 2 7 2 1 2 1 1 2 1 4 3 2 2 1 2 1 6 2 2 4 2 1 0 0 2 3 5 6 6 3 3 2 6 8 6 5 3 1 1 3 4 3 2 4 4 4 5 4 4 1 9 5 10 12 9 8 7 2 5 7 5 6 6 8 10 14 20 23 25 24 24
22 22 22 25 27 26 26 25 18 13 11 8 7 4 4 1 1 6 5 3 2 2 1 1 2 1 2 2 2 3 1 2 2 5 3 2 3 3 3 5 4 1 4 4 3 4 2 6 4 3 7 8 6 2 3 4 3 4 3 2 1 4 3 3 3 1 3 8 5 5 5 5 11 8 4 8 11 9 9 8 10 10 14 21 23 24 25 26
21 21 22 25 28 29 28 26 24 20 15 11 8 5 4 1 5 5 3 1 2 1 2 1 1 2 3 2 2 3 1 2 4 4 2 3 3 4 5 5 5 2 5 3 1 4 3 5 2 3 4 8 9 6 3 2 4 6 5 5 4 2 2 4 3 2 5 6 3 3 4 4 9 5 8 13 14 14 11 10 17 19 20 25 26 27 29 31
21 21 22 23 25 28 26 24 24 24 21 14 6 4 2 4 5 1 3 6 3 2 2 2 2 1 2 2 4 3 2 3 3 4 1 3 2 3 4 5 5 2 2 1 1 2 3 7 4 5 2 8 12 9 6 5 4 6 5 6 5 5 4 4 4 5 8 6 3 1 4 4 4 3 7 12 11 13 14 15 17 18 21 27 31 34 35 37
21 21 21 20 22 23 21 22 23 23 21 13 5 3 3 6 4 0 3 5 2 2 3 2 4 1 3 3 3 1 4 4 1 4 3 3 3 4 3 5 7 5 3 2 2 3 4 8 6 1 1 8 9 5 4 6 1 3 4 5 3 5 5 4 6 6 5 4 3 3 4 5 4 6 8 8 10 12 15 15 12 14 21 25 28 33 36 38
22 22 22 22 23 21 19 21 21 21 20 11 4 3 7 6 3 3 3 1 1 1 2 3 2 2 4 3 3 2 3 3 1 2 3 3 3 5 5 4 7 9 8 5 3 2 4 6 3 1 1 4 5 2 2 3 2 1 3 3 4 4 5 4 7 3 1 5 5 5 8 6 4 9 8 6 9 10 10 11 10 16 22 22 23 29 33 34
21 22 23 25 24 21 19 19 19 22 21 12 4 6 6 4 4 4 2 1 1 2 2 2 2 2 2 2 2 3 0 1 1 1 1 2 3 4 4 4 5 11 12 8 3 3 4 4 2 3 2 2 1 2 2 0 4 4 3 5 2 3 3 2 3 2 4 8 6 5 13 11 7 9 6 5 7 8 8 8 8 12 16 16 22 29 32 32
20 20 23 26 24 21 20 17 18 22 18 8 7 10 4 3 5 5 3 2 1 3 3 2 2 2 1 2 2 2 1 1 1 1 1 2 3 4 3 4 4 9 13 10 3 3 2 4 4 1 2 1 3 3 3 2 2 3 2 2 2 1 3 2 2 2 6 10 5 6 13 11 8 10 10 8 8 9 9 8 7 8 8 13 24 32 36 34
16 15 19 21 19 19 21 18 20 23 14 4 8 9 4 3 5 6 6 4 2 2 1 4 3 1 1 2 2 2 2 2 0 0 1 2 3 2 2 1 2 5 9 7 2 3 3 3 4 2 2 2 3 1 3 2 2 1 1 2 1 3 5 4 3 2 5 9 8 8 10 7 7 11 15 17 14 10 9 8 6 8 9 16 23 27 29 27
11 9 11 11 9 14 20 19 20 19 8 3 8 7 3 3 5 10 14 10 4 3 4 3 4 3 3 4 4 4 3 3 3 3 3 3 5 7 7 4 3 6 5 8 5 1 1 2 5 2 2 3 2 4 6 5 4 1 1 3 2 3 2 3 3 2 4 9 8 9 10 7 7 9 16 24 17 9 9 9 7 8 12 17 22 26 29 29
9 6 8 8 7 12 20 18 14 10 3 4 7 7 5 4 4 8 14 15 9 6 5 4 4 6 5 6 6 4 3 3 5 5 4 5 7 7 9 9 7 8 5 3 5 4 3 4 5 4 4 6 9 9 6 7 8 6 6 7 8 8 5 6 8 6 6 8 8 10 11 7 6 7 15 23 16 7 9 8 7 9 14 20 26 30 32 32
10 6 6 8 10 15 21 14 7 6 4 5 6 7 6 4 4 5 8 11 9 7 5 4 5 6 5 6 7 5 4 3 5 6 5 7 11 9 8 11 12 10 6 2 4 6 4 3 4 7 8 11 14 14 10 8 8 7 6 6 8 9 8 9 12 9 7 9 8 10 12 6 6 10 16 19 17 10 8 9 7 11 18 22 26 28 30 34
11 10 8 8 10 19 19 7 5 6 4 5 7 7 7 5 4 5 5 6 6 5 4 3 5 7 6 6 7 5 5 5 7 9 8 7 10 13 17 18 14 8 5 4 4 5 3 2 5 9 8 8 10 11 9 5 4 5 6 7 9 11 12 12 10 6 7 10 8 9 12 6 5 10 14 15 18 18 15 12 10 13 19 21 24 28 29 31
8 13 14 10 11 19 15 4 5 7 5 6 7 7 9 7 6 8 6 5 5 5 3 3 5 8 7 6 7 7 6 6 8 10 10 7 6 13 22 25 19 9 5 6 4 4 3 3 6 9 8 8 6 6 7 4 5 7 8 10 11 12 14 12 7 4 7 11 12 12 12 6 3 6 10 13 17 19 19 14 11 14 20 22 23 26 25 25
4 9 14 14 16 19 16 9 6 5 5 9 9 9 10 7 9 15 13 7 8 7 3 4 5 5 6 5 7 8 7 7 7 5 6 5 3 6 11 18 19 15 13 16 12 6 5 5 7 8 9 9 8 8 6 4 5 5 6 11 14 13 14 11 7 7 10 12 14 13 11 8 5 6 10 16 18 18 20 19 13 12 18 22 24 26 27 28
3 3 5 8 14 19 21 20 13 5 4 7 8 8 11 10 10 14 13 8 11 12 6 5 5 3 4 6 7 9 9 9 8 5 6 6 4 2 8 13 11 10 12 15 12 4 1 4 9 13 13 12 13 13 7 2 3 4 5 11 14 14 15 11 8 10 11 11 13 13 13 14 11 10 13 18 19 20 22 22 17 16 23 26 22 19 18 19
2 3 1 2 7 11 15 17 12 6 4 5 4 3 9 12 8 8 10 8 10 12 7 6 7 7 6 6 7 8 9 10 10 9 10 8 4 7 14 15 11 15 16 12 12 6 1 4 10 16 18 17 18 19 15 11 12 12 10 11 12 13 13 12 12 14 12 12 12 12 14 17 13 12 16 19 20 22 20 19 21 25 25 20 17 17 17 18
3 4 3 1 2 4 6 6 5 4 3 3 3 3 7 12 9 6 7 4 4 7 5 5 7 6 3 2 3 3 4 6 8 6 4 4 4 7 12 9 5 14 17 11 12 6 3 5 8 13 17 18 18 20 20 18 18 17 16 17 18 18 17 16 17 17 14 13 14 13 17 19 16 14 18 18 18 20 21 24 27 25 23 25 24 24 24 25
5 5 6 4 3 3 4 5 5 3 3 3 3 3 6 10 10 6 2 1 2 3 6 5 2 3 3 3 1 1 2 3 3 1 3 5 5 3 5 5 3 10 13 8 8 5 4 3 5 10 13 14 16 18 19 20 19 19 20 21 21 21 21 21 21 19 18 19 20 20 23 24 19 17 16 14 14 16 20 24 23 24 26 25 23 22 24 26
5 4 5 6 5 5 7 7 5 4 3 3 4 5 5 7 7 4 1 2 2 2 3 3 2 3 3 3 1 2 1 1 1 0 2 4 4 1 1 3 5 9 10 5 3 4 4 4 7 9 10 10 12 15 16 17 18 18 19 20 20 20 21 20 18 17 18 21 22 23 25 20 13 12 10 13 19 21 20 20 20 21 22 22 23 23 24 25
9 7 7 7 5 4 4 4 3 3 3 4 3 3 4 5 4 2 2 3 5 2 2 2 2 3 1 1 1 3 3 3 3 4 5 4 5 5 4 4 6 9 9 5 3 3 3 4 6 8 9 9 9 10 12 14 14 15 16 17 18 19 17 16 16 17 18 20 21 20 15 8 6 10 10 13 17 16 13 14 16 18 21 22 22 24 26 27
11 10 8 5 4 4 3 2 3 3 3 2 1 2 3 1 4 5 3 3 3 6 7 6 3 3 2 3 4 2 2 3 6 9 12 12 15 16 15 15 14 10 6 5 4 4 4 4 5 6 8 8 9 10 11 11 11 11 11 14 18 19 17 16 18 18 15 13 13 10 4 2 5 8 10 12 12 10 9 11 15 19 22 24 24 25 27 28
Wind_Direction
312 318 319 322 325 328 333 338 343 347 354 359 3 9 10 13 19 20 23 24 22 20 15 12 8 2 360 355 350 347 340 330 319 309 304 308 293 266 250 243 244 249 255 251 241 239 215 203 207 200 199 206 216 218 207 207 189 169 110 136 236 204 201 195 193 204 186 254 280 300 280 229 261 272 263 273 259 254 256 250 245 243 244 247 251 253 255 259
304 308 308 311 313 316 321 324 328 333 338 343 351 355 357 3 3 6 10 10 10 8 6 3 360 357 354 351 350 346 342 334 322 311 324 6 347 305 260 246 243 244 248 248 243 244 233 223 219 205 202 209 218 212 204 205 191 178 126 162 230 204 211 206 199 212 205 259 282 289 284 241 252 274 274 266 257 254 254 251 245 245 248 250 251 251 253 254
298 301 302 302 303 306 307 310 314 316 321 325 329 333 337 340 341 346 347 349 352 350 348 346 345 344 342 341 341 342 341 335 325 314 38 5 351 346 301 255 247 244 242 245 241 236 236 232 226 209 206 215 218 211 203 196 197 201 169 212 244 217 235 248 239 243 249 269 286 288 282 249 264 274 262 252 266 263 244 246 239 242 254 257 255 253 252 252
293 295 296 297 298 298 298 300 301 300 304 304 308 311 312 316 318 319 321 325 330 331 333 331 332 332 332 332 333 335 338 334 325 119 358 340 341 346 339 287 258 250 243 241 235 227 229 224 221 211 209 220 216 213 212 202 198 190 176 209 237 192 230 258 254 259 269 275 270 275 290 278 280 274 253 254 280 272 244 249 250 250 265 270 262 258 254 251
290 292 293 294 294 294 295 294 293 293 293 292 294 294 296 298 300 303 306 307 311 316 319 320 322 324 323 324 325 327 341 345 158 358 334 333 348 345 345 328 284 261 248 238 233 229 227 224 220 212 213 225 196 192 226 211 196 177 212 229 236 190 222 265 266 272 277 277 268 271 288 283 283 268 254 246 240 261 262 268 271 269 277 278 269 264 257 251
290 291 291 292 292 292 292 291 291 291 289 289 288 289 291 291 293 296 297 300 303 306 310 312 314 316 317 318 318 318 327 300 284 320 322 318 330 332 337 327 312 281 257 239 235 230 228 225 219 210 207 225 193 191 231 213 198 216 244 239 246 234 238 266 269 271 274 273 268 271 276 280 280 271 264 244 242 263 274 278 279 280 281 277 269 261 256 252
291 292 292 291 292 292 291 290 289 288 288 288 287 287 288 288 290 291 293 297 298 301 304 306 308 310 312 312 310 309 293 272 294 307 303 300 309 316 319 312 306 289 267 248 239 229 228 223 219 216 200 242 221 210 235 219 200 222 262 243 252 247 246 263 269 271 273 270 270 274 278 275 264 270 277 260 262 271 277 279 279 280 277 270 263 258 257 257
291 292 292 292 292 292 292 291 289 289 288 287 287 287 286 287 288 288 291 292 295 298 299 301 303 304 307 307 306 302 283 282 296 296 292 296 299 309 309 300 294 286 278 266 250 234 231 227 225 222 208 235 225 208 222 231 211 214 244 249 251 253 258 269 272 270 271 269 273 277 271 266 262 269 279 270 274 279 280 282 283 280 273 264 260 258 257 257
292 293 293 293 294 294 294 293 292 291 290 289 290 289 289 289 288 289 289 289 291 292 293 297 297 298 301 299 301 296 284 288 293 289 295 297 296 301 299 293 287 281 279 267 252 235 230 231 231 227 235 246 231 224 205 215 234 211 231 252 261 265 272 277 273 268 269 267 268 266 267 270 271 274 275 271 277 285 284 285 287 278 268 262 261 259 257 257
289 290 291 292 293 293 293 293 293 292 291 291 290 290 290 289 290 290 289 290 290 290 291 292 292 294 294 291 290 279 281 289 290 291 295 293 293 294 291 289 281 274 272 263 250 238 234 237 240 234 247 258 241 236 205 200 240 238 248 266 270 275 282 279 272 271 270 267 255 231 259 272 271 259 268 273 277 286 286 286 285 275 269 268 264 262 260 258
284 284 285 285 286 287 287 288 288 289 288 288 289 289 288 288 288 288 288 289 288 289 288 288 289 287 286 285 268 257 280 289 290 291 291 289 289 287 286 282 274 268 262 260 256 251 246 242 243 235 239 251 247 245 230 230 252 281 295 293 283 291 294 280 269 270 263 266 251 221 250 275 269 170 251 269 273 275 280 282 280 274 272 272 268 267 263 261
280 281 281 281 282 282 282 283 283 284 284 284 285 285 285 285 284 284 285 285 285 285 283 283 282 279 280 275 263 267 284 287 287 288 286 287 284 281 282 276 270 265 257 258 257 258 253 242 236 232 236 243 274 298 249 246 275 297 317 314 298 326 307 283 267 260 235 243 249 201 247 281 251 219 251 268 273 271 275 278 278 276 274 273 270 267 264 266
280 281 281 282 282 282 283 283 282 283 282 283 283 282 282 281 281 281 280 281 281 280 279 278 274 272 267 266 271 278 284 283 282 283 282 282 280 278 276 272 268 259 252 252 252 254 250 245 237 236 249 251 258 273 271 293 314 300 318 350 304 339 310 285 280 239 207 216 214 163 227 271 255 253 260 273 276 270 270 274 279 279 278 277 273 269 267 271
284 284 285 285 286 286 286 285 285 284 284 284 284 283 282 281 281 280 279 279 278 276 276 274 270 264 252 262 277 281 280 280 279 279 281 279 277 275 271 268 265 255 252 250 249 250 246 248 241 239 250 249 257 273 295 331 329 299 306 318 306 312 280 295 50 149 214 241 187 167 244 251 260 270 271 277 277 270 265 271 279 279 280 280 276 273 270 272
288 289 289 290 290 291 290 290 289 288 288 287 287 287 285 283 282 280 280 278 276 276 275 272 267 257 248 266 276 279 278 276 276 280 281 274 269 268 267 265 260 253 249 247 247 248 244 239 232 232 245 253 261 278 330 342 344 354 284 283 283 218 264 300 312 206 221 251 179 172 251 249 255 269 274 280 277 268 259 266 276 277 279 279 276 274 271 270
292 293 293 294 295 294 294 294 294 293 293 294 294 292 290 288 285 283 281 278 275 274 271 270 264 247 241 272 274 274 274 272 277 281 273 267 264 262 262 260 254 246 242 243 245 244 238 221 218 224 238 255 248 129 40 349 318 339 214 247 255 240 269 309 303 244 216 219 184 199 233 255 253 260 273 281 280 270 257 265 273 275 278 276 274 274 272 272
297 297 297 298 297 296 297 297 298 298 298 300 299 297 296 294 291 287 282 277 272 267 263 262 256 240 240 263 269 270 273 275 279 276 268 265 261 257 255 250 243 237 235 237 237 227 209 196 194 219 239 243 137 103 55 298 271 284 218 234 244 244 257 283 299 285 219 183 209 230 233 248 254 261 275 280 282 278 255 263 271 273 276 275 275 274 273 273
301 302 301 302 300 298 299 300 302 302 303 305 304 301 301 299 295 290 283 275 265 255 255 237 208 220 250 249 259 270 276 279 275 268 263 256 249 248 243 239 236 226 217 218 214 193 184 186 170 159 280 238 147 121 177 234 235 237 229 243 257 240 243 246 264 280 262 219 216 234 251 252 260 270 274 274 277 278 263 264 269 270 272 273 274 273 273 273
308 309 310 310 306 304 306 307 309 308 308 309 308 308 306 303 297 289 278 261 238 221 242 209 189 202 254 247 259 271 272 270 265 259 254 252 247 237 227 225 218 194 181 175 196 185 172 147 115 140 244 231 208 174 204 227 228 230 228 237 257 256 247 237 246 249 256 272 252 245 261 260 263 264 266 271 274 275 271 268 268 269 270 271 272 271 271 271
313 315 317 318 313 314 317 318 319 319 318 315 318 320 316 313 305 290 270 249 239 242 251 234 223 236 250 256 264 267 265 263 263 260 257 258 247 225 207 193 176 178 178 163 189 191 171 161 156 194 223 224 213 201 215 232 239 246 238 242 248 255 262 250 257 258 207 262 259 237 260 267 264 263 261 268 272 274 273 271 267 266 266 267 268 269 270 269
311 312 318 323 319 322 326 326 328 328 326 324 330 339 338 337 323 299 293 273 265 261 258 255 248 247 253 258 258 258 262 263 260 258 259 255 233 208 193 172 153 183 200 157 146 166 166 182 205 216 226 225 218 215 225 243 258 258 243 257 256 242 261 258 262 270 203 196 259 235 263 269 263 264 262 264 267 262 263 267 266 264 265 267 267 268 270 271
301 302 311 319 318 323 327 329 329 327 329 330 335 347 348 338 319 300 304 287 278 273 264 261 255 250 253 256 254 252 253 259 258 251 249 236 209 198 186 171 177 193 169 146 127 148 183 213 224 226 235 254 265 248 222 238 243 247 244 265 269 248 269 269 255 270 253 186 269 260 261 265 262 262 257 256 255 253 255 259 264 266 265 266 266 267 269 272
286 287 294 301 305 312 318 323 321 320 328 332 339 347 344 336 328 316 311 278 279 279 267 261 253 250 252 253 252 247 241 244 251 248 243 222 196 198 188 168 185 169 150 192 201 199 205 231 234 234 244 296 266 260 182 254 245 227 231 253 266 254 264 266 251 282 303 216 269 281 271 268 259 258 253 247 249 254 257 258 263 267 263 262 264 265 267 270
277 279 283 287 293 299 308 313 311 317 325 333 345 346 342 337 333 330 320 275 273 275 265 262 254 249 252 251 248 241 235 235 241 245 239 219 193 189 195 177 155 162 199 211 213 222 234 245 235 216 193 205 240 250 226 268 259 222 213 226 252 253 248 254 277 324 320 266 273 293 289 279 226 232 246 245 248 254 257 257 262 264 262 261 263 264 265 267
276 279 281 283 286 291 302 303 301 316 324 334 346 345 347 344 338 339 335 300 278 268 258 258 251 249 248 245 241 233 229 234 237 238 235 221 203 186 184 180 170 212 218 212 222 243 251 253 215 165 197 207 216 240 221 228 253 250 215 220 241 252 258 265 287 328 332 296 297 319 299 293 194 202 233 246 250 254 254 253 252 258 261 261 262 264 265 268
277 277 278 278 278 283 295 298 300 316 323 329 341 348 348 347 350 349 351 345 286 262 219 227 232 241 233 228 218 190 184 248 241 232 227 225 214 203 182 171 188 230 205 188 225 250 248 239 205 182 200 191 190 242 226 207 244 271 227 217 236 251 263 264 272 299 280 262 294 64 264 286 271 194 218 235 242 249 251 248 246 253 260 260 260 265 269 273
274 272 274 275 274 276 287 295 300 310 317 317 331 346 344 349 7 1 3 342 283 214 146 187 187 167 218 204 178 155 167 262 219 211 210 211 210 205 205 187 194 232 163 138 271 245 208 216 200 184 181 164 182 238 221 183 215 265 233 203 217 233 245 247 245 240 240 274 291 175 148 271 284 238 201 211 220 241 250 249 251 254 257 259 260 267 272 276
267 266 270 276 278 278 281 286 295 303 300 304 321 334 342 359 9 17 37 299 285 128 121 187 166 171 261 173 174 169 345 343 93 183 198 199 200 198 220 214 186 204 162 153 244 240 165 191 199 174 156 172 204 222 179 153 198 251 177 164 193 211 225 202 189 215 267 347 281 210 139 246 282 268 188 203 215 235 246 244 247 251 257 263 266 269 272 279
267 266 268 275 279 279 279 282 292 297 282 283 303 314 343 2 2 39 88 253 300 68 105 184 161 218 96 150 189 221 345 24 57 134 154 189 199 189 236 225 190 210 209 191 231 254 171 193 190 162 161 211 217 217 163 160 202 229 114 105 72 69 69 102 160 167 65 311 258 195 161 223 280 276 149 125 212 230 243 245 249 255 259 263 268 269 270 278
264 265 265 267 269 271 277 280 287 289 267 265 286 294 353 45 31 56 226 244 332 357 144 143 207 197 114 126 226 264 283 349 49 123 105 149 194 198 301 236 184 198 250 253 248 252 228 139 150 172 193 205 180 149 167 176 190 120 98 56 24 17 27 59 62 80 62 281 247 179 182 195 274 278 164 174 225 222 231 244 264 268 262 262 264 267 270 275
261 262 259 258 260 263 268 270 274 270 253 256 284 274 152 89 71 188 233 243 14 295 99 92 301 84 116 133 257 273 202 287 100 138 132 94 171 220 40 256 129 73 320 288 268 271 222 163 194 206 194 164 117 102 359 158 137 109 97 58 11 322 1 29 352 50 168 265 244 182 185 186 236 260 208 252 277 248 220 224 253 266 270 271 265 262 268 278
261 260 254 252 255 257 257 259 264 258 242 247 259 218 155 91 211 215 245 359 355 258 119 193 279 88 98 77 246 234 162 247 199 143 160 140 160 207 202 204 182 49 304 253 268 317 250 217 212 178 189 175 142 126 339 357 94 124 123 126 325 307 343 350 315 83 215 256 252 186 175 206 245 256 249 269 277 254 230 220 235 256 274 277 272 266 271 280
260 257 252 249 251 254 254 254 257 252 247 254 244 189 130 201 232 211 218 269 246 239 104 125 41 114 119 61 269 231 161 231 199 154 161 136 166 237 248 229 180 212 262 221 300 320 292 279 188 138 229 194 164 168 228 266 170 160 155 160 172 203 245 264 262 266 263 268 270 184 171 257 278 276 230 237 247 251 255 247 245 251 261 269 275 277 277 277
257 256 253 248 249 253 254 253 252 252 255 254 219 138 115 227 240 141 177 221 253 342 53 88 55 43 142 206 250 209 197 259 169 145 170 122 161 256 260 243 207 200 242 213 297 226 253 289 211 168 224 179 177 197 187 145 157 182 159 143 170 182 192 226 229 251 267 281 305 220 180 223 268 285 236 233 256 279 281 268 259 261 264 267 271 272 272 271
256 257 255 251 247 245 248 249 249 253 252 236 169 135 203 229 250 277 205 229 285 319 318 52 86 42 272 253 281 244 209 254 102 123 180 168 178 212 211 219 200 170 156 205 256 178 211 264 245 202 105 158 178 215 140 112 148 225 130 117 213 200 180 230 239 233 251 294 297 243 227 220 235 278 270 257 271 276 272 273 277 274 268 267 268 270 273 274
258 256 255 254 249 243 245 244 247 250 237 204 145 204 220 226 217 188 202 209 151 192 321 347 107 183 269 270 314 310 189 213 194 137 206 206 203 215 217 224 198 184 180 186 217 203 217 260 272 49 43 165 174 185 126 146 206 201 122 177 228 164 152 233 263 260 261 271 260 243 262 280 297 285 281 285 279 270 273 278 268 262 267 272 276 279 282 285
258 257 256 253 250 250 248 240 242 242 221 189 191 229 220 231 203 186 194 145 152 104 75 291 233 175 250 273 288 285 234 199 218 134 209 233 231 208 218 255 201 190 205 211 226 246 239 267 254 159 191 264 71 62 360 261 151 126 163 219 214 102 124 188 265 292 255 254 248 238 264 282 301 282 292 351 312 283 272 262 257 265 272 283 290 292 296 300
260 262 261 255 251 249 242 237 237 226 205 182 234 235 214 217 202 179 158 142 123 54 72 225 232 126 187 265 281 262 288 325 29 84 215 256 244 176 175 260 215 196 219 226 253 304 292 287 284 137 150 311 36 38 329 320 158 158 216 218 131 180 245 209 194 231 243 255 252 229 253 270 276 274 284 288 264 256 262 266 278 278 280 297 300 301 303 306
261 267 269 261 251 240 231 229 223 209 192 180 234 232 208 201 211 199 197 192 146 116 211 226 221 218 198 212 256 275 260 252 258 97 196 233 253 208 149 263 242 224 216 194 195 313 348 309 288 13 50 353 26 52 227 255 304 341 311 328 102 197 228 222 199 180 231 255 259 242 243 244 250 267 279 272 249 230 249 265 264 262 281 296 296 301 306 311
253 253 267 258 236 225 218 215 209 198 189 223 224 228 222 212 233 222 218 222 199 182 222 215 201 226 225 221 247 261 244 228 223 228 215 215 250 268 268 256 274 277 220 166 175 241 35 269 258 282 330 299 269 210 197 205 221 194 210 249 237 217 247 266 239 187 228 252 255 252 246 227 227 251 266 270 261 213 217 239 242 257 279 287 295 304 305 305
223 235 260 227 203 203 196 195 200 194 205 242 228 239 246 240 255 238 228 229 227 226 221 196 203 223 227 236 242 228 211 217 220 222 223 221 230 252 250 229 234 276 278 158 180 208 200 221 232 241 256 252 247 238 209 199 217 224 216 222 227 228 243 265 252 219 216 242 244 252 257 231 201 234 255 266 266 215 202 226 240 261 274 284 294 297 293 295
201 228 247 200 200 198 184 182 202 205 211 223 229 238 231 232 251 250 236 224 222 232 230 215 222 223 221 235 239 221 208 214 214 216 221 224 222 221 229 228 226 239 253 243 217 214 191 162 208 229 235 236 245 255 246 213 222 249 241 225 233 232 225 239 247 240 229 240 243 254 261 239 193 234 252 264 274 268 240 229 240 267 274 281 288 286 285 289
208 229 219 179 200 204 191 190 221 206 217 243 247 242 226 224 242 246 236 213 206 216 226 221 219 222 223 225 232 230 225 221 214 222 235 234 225 226 236 244 242 230 235 260 255 221 173 141 237 244 250 247 248 264 268 218 195 256 254 228 230 232 231 238 249 259 254 247 247 255 257 238 200 240 258 270 280 283 271 246 240 266 273 275 280 283 285 283
238 249 237 207 204 206 199 200 220 211 228 244 247 246 239 235 234 241 238 200 185 192 215 225 215 225 229 221 227 225 218 228 229 229 233 232 228 228 234 240 238 224 211 211 206 205 200 221 249 255 264 264 259 272 275 241 211 238 242 235 236 237 244 258 271 280 261 248 246 255 258 247 227 256 271 276 276 280 280 266 240 251 265 270 275 279 279 275
283 269 250 228 215 217 222 230 235 233 226 233 242 243 245 248 239 243 245 224 201 192 200 238 228 231 229 223 242 236 221 235 249 243 227 233 249 225 239 250 242 234 236 229 218 214 230 235 237 248 253 249 253 253 241 230 228 230 231 237 243 238 236 250 261 251 253 248 244 252 262 263 265 279 282 279 278 280 284 284 270 259 270 272 270 271 274 279
299 278 259 235 220 225 237 240 242 249 223 232 241 231 234 246 249 245 242 234 223 214 215 239 243 261 239 226 246 250 241 239 244 247 245 261 282 300 331 323 300 300 298 274 267 263 249 250 235 241 247 244 254 258 243 226 238 224 219 228 237 239 233 235 247 247 253 258 251 252 265 269 267 272 276 277 280 282 284 289 292 291 290 288 286 290 297 309
279 268 230 233 230 231 242 245 240 232 216 221 230 230 237 244 256 246 229 225 223 217 220 237 227 228 233 234 245 252 253 246 245 253 259 273 297 312 331 338 345 4 7 344 333 349 171 267 250 246 252 249 255 264 261 263 260 251 249 245 243 245 238 232 240 243 248 259 258 252 260 267 264 262 266 269 276 280 283 289 295 301 311 330 358 14 15 11
225 275 254 243 264 237 241 256 258 249 243 235 243 277 256 248 253 244 223 230 226 204 208 239 227 217 228 268 257 256 274 260 258 268 280 336 353 328 331 332 357 17 18 4 351 356 206 257 257 250 261 258 258 265 262 262 263 258 258 257 253 253 250 245 247 247 246 254 262 263 264 266 265 257 256 259 267 276 287 299 310 330 3 26 33 31 27 21
240 281 280 283 297 285 288 313 335 321 277 267 257 244 244 247 251 244 220 323 313 229 226 236 192 108 86 56 46 263 308 273 263 346 46 10 340 316 331 311 307 12 11 354 338 321 237 276 282 268 276 272 266 267 264 263 264 262 259 256 255 257 256 256 257 259 259 260 265 269 266 264 266 267 269 285 308 320 328 336 353 17 28 30 29 27 23 17
261 276 300 314 301 287 289 292 310 322 286 266 249 232 233 241 250 262 231 209 247 278 249 232 60 72 120 122 146 231 259 100 152 276 2 357 342 337 357 306 300 334 341 328 316 300 279 311 321 308 297 285 277 271 266 266 265 265 264 262 262 263 262 264 268 268 268 267 265 264 264 265 282 305 324 0 9 9 8 11 23 30 23 19 21 19 14 10
257 266 296 314 295 274 284 282 293 299 266 244 232 246 255 243 253 314 323 245 233 215 106 94 23 6 108 154 244 195 167 134 173 232 257 260 271 274 265 264 287 312 318 295 267 295 298 299 314 310 290 282 286 278 278 284 280 273 269 263 260 261 259 261 260 254 256 262 265 268 272 280 330 344 360 23 21 16 15 15 16 17 16 18 15 10 7 6
256 267 273 276 273 273 283 325 316 266 248 247 244 290 283 291 24 13 305 271 153 120 78 52 12 342 350 309 297 157 143 298 276 269 272 261 255 257 250 245 248 253 270 287 275 259 266 281 297 296 288 289 289 285 291 297 286 274 266 255 251 254 256 255 256 261 269 273 273 276 284 321 345 359 4 9 12 7 358 5 11 11 11 11 8 5 4 2